FW8055 Weather Reports


time (UTC)temp
F
wind
direction
speed
knots
gust
knots
rain 1hr
in
rain 24hr
in
rain mn
in
humidity
%
barometer
mb
20260509074605 51 0 0.0 0.0 0.00 0.00 0.00 88 1021.9
20260509073101 51 0 0.0 0.0 0.00 0.00 0.00 87 1022.0
20260509071555 51 0 0.0 0.0 0.00 0.00 0.00 87 1022.1
20260509070051 52 0 0.0 0.0 0.00 0.00 0.00 86 1022.2
20260509064544 52 0 0.0 0.0 0.00 0.00 0.00 86 1022.2
20260509063057 53 0 0.0 0.0 0.00 0.00 0.00 85 1022.2
20260509061547 53 0 0.0 0.0 0.00 0.00 0.00 84 1022.2
20260509060105 53 0 0.0 0.0 0.00 0.00 0.00 84 1022.1
20260509054543 54 0 0.0 0.0 0.00 0.00 0.00 82 1022.2
20260509053057 55 0 0.0 0.0 0.00 0.00 0.00 81 1022.1
20260509051548 55 0 0.0 0.0 0.00 0.00 0.00 80 1022.0
20260509050046 56 0 0.0 0.0 0.00 0.00 0.00 79 1021.9
20260509044545 57 0 0.0 0.0 0.00 0.00 0.00 78 1021.9
20260509043054 58 0 0.0 0.0 0.00 0.00 0.00 76 1021.7
20260509041544 59 0 0.0 0.0 0.00 0.00 0.00 74 1021.7
20260509040059 60 0 0.0 0.0 0.00 0.00 0.00 72 1021.6
20260509034546 61 0 0.0 0.0 0.00 0.00 0.00 68 1021.4
20260509033109 63 0 0.0 0.9 0.00 0.00 0.00 66 1021.2
20260509031549 64 0 0.0 0.9 0.00 0.00 0.00 64 1021.1
20260509030043 65 0 0.0 4.3 0.00 0.00 0.00 60 1021.1
20260509024557 66 0 0.0 1.7 0.00 0.00 0.00 58 1021.1
20260509023046 66 5 0.0 4.3 0.00 0.00 0.00 58 1020.9
20260509021547 67 0 0.9 3.5 0.00 0.00 0.00 56 1021.0
20260509020047 67 338 1.7 5.2 0.00 0.00 0.00 55 1021.0
20260509014545 68 42 1.7 4.3 0.00 0.00 0.00 53 1020.9
20260509013047 68 360 0.9 6.1 0.00 0.00 0.00 52 1020.9
20260509011545 69 347 0.9 3.5 0.00 0.00 0.00 52 1021.0
20260509010046 69 19 1.7 7.0 0.00 0.00 0.00 50 1021.0
20260509004549 69 40 1.7 5.2 0.00 0.00 0.00 50 1021.0
20260509003047 69 0 1.7 7.8 0.00 0.00 0.00 50 1021.1
20260509001542 70 339 1.7 6.1 0.00 0.00 0.00 49 1021.0
20260509000043 70 39 1.7 5.2 0.00 0.00 0.00 47 1020.9
20260508234542 70 15 1.7 7.8 0.00 0.00 0.00 48 1021.0
20260508233045 70 331 2.6 6.1 0.00 0.00 0.00 48 1021.1
20260508231549 70 11 1.7 7.8 0.00 0.00 0.00 48 1021.1
20260508230045 70 352 2.6 6.1 0.00 0.00 0.00 49 1021.1
20260508224551 70 22 1.7 7.0 0.00 0.00 0.00 49 1021.1
20260508223042 69 5 1.7 8.7 0.00 0.00 0.00 48 1021.2
20260508221547 69 99 0.9 7.0 0.00 0.00 0.00 50 1021.3
20260508220054 68 19 0.9 5.2 0.00 0.00 0.00 51 1021.5
20260508214547 68 44 1.7 5.2 0.00 0.00 0.00 50 1021.5
20260508213047 68 219 0.9 3.5 0.00 0.00 0.00 51 1021.8
20260508211550 67 49 0.9 4.3 0.00 0.00 0.00 52 1021.9
20260508210051 66 21 0.9 7.0 0.00 0.00 0.00 55 1021.7
20260508204546 65 59 1.7 7.0 0.00 0.00 0.00 53 1022.0
20260508203046 65 336 2.6 7.0 0.00 0.00 0.00 53 1022.1
20260508201544 65 18 0.9 3.5 0.00 0.00 0.00 55 1022.0
20260508200049 64 0 0.0 5.2 0.00 0.00 0.00 55 1022.3
20260508194600 63 114 0.0 7.0 0.00 0.00 0.00 58 1022.3
20260508193105 62 81 0.9 5.2 0.00 0.00 0.00 58 1022.5
20260508191552 61 31 1.7 3.5 0.00 0.00 0.00 60 1022.6
20260508184543 60 35 2.6 6.1 0.00 0.00 0.00 61 1022.5
20260508183051 60 39 0.9 5.2 0.00 0.00 0.00 62 1022.6
20260508181554 58 74 1.7 5.2 0.00 0.00 0.00 64 1022.8
20260508180049 58 207 1.7 4.3 0.00 0.00 0.00 65 1022.9
20260508174552 57 0 0.0 3.5 0.00 0.00 0.00 69 1022.7
20260508173054 55 37 0.0 4.3 0.00 0.00 0.00 71 1022.6
20260508171555 54 26 0.0 3.5 0.00 0.00 0.00 74 1022.5
20260508170057 54 19 0.9 2.6 0.00 0.00 0.00 75 1022.3
20260508164554 53 0 0.0 2.6 0.00 0.00 0.00 77 1022.2
20260508163059 53 0 0.0 2.6 0.00 0.00 0.00 75 1022.0
20260508161553 52 43 0.0 1.7 0.00 0.00 0.00 78 1021.7
20260508160047 52 0 0.0 2.6 0.00 0.00 0.00 77 1022.2
20260508154545 52 0 0.0 2.6 0.00 0.00 0.00 76 1022.0
20260508153056 52 0 0.0 1.7 0.00 0.00 0.00 78 1022.1
20260508151544 51 190 0.0 2.6 0.00 0.00 0.00 78 1022.1
20260508150042 51 0 0.0 0.9 0.00 0.00 0.00 78 1022.0
20260508144545 50 0 0.0 3.5 0.00 0.00 0.00 81 1022.1
20260508143102 49 0 0.0 0.9 0.00 0.00 0.00 83 1022.1
20260508141544 48 0 0.0 1.7 0.00 0.00 0.00 87 1022.0
20260508140045 47 0 0.0 0.0 0.00 0.00 0.00 90 1021.9
20260508134547 46 0 0.0 0.0 0.00 0.00 0.00 90 1021.9
20260508133045 45 0 0.0 0.9 0.00 0.00 0.00 90 1021.8
20260508131549 45 0 0.0 0.0 0.00 0.00 0.00 89 1021.8
20260508130045 45 0 0.0 0.9 0.00 0.00 0.00 89 1021.4
20260508124548 46 0 0.0 0.0 0.00 0.00 0.00 88 1021.1
20260508123048 46 177 0.0 1.7 0.00 0.00 0.00 88 1020.9
20260508121547 46 0 0.0 0.9 0.00 0.00 0.00 88 1020.8
20260508120051 46 0 0.0 0.9 0.00 0.00 0.00 89 1020.8
20260508114547 46 0 0.0 1.7 0.00 0.00 0.00 90 1020.7
20260508113043 46 352 0.0 0.9 0.00 0.00 0.00 89 1020.6
20260508111549 46 0 0.0 1.7 0.00 0.00 0.00 88 1020.4
20260508110056 46 0 0.0 0.0 0.00 0.00 0.00 87 1020.1
20260508104544 47 0 0.0 0.0 0.00 0.00 0.00 87 1019.9
20260508103051 48 0 0.0 0.0 0.00 0.00 0.00 86 1019.7
20260508101554 48 0 0.0 0.9 0.00 0.00 0.00 87 1019.6
20260508100056 48 0 0.0 1.7 0.00 0.00 0.00 87 1019.4
20260508094548 48 0 0.0 0.0 0.00 0.00 0.00 86 1019.2
20260508093046 48 0 0.0 0.0 0.00 0.00 0.00 86 1019.0
20260508091604 49 0 0.0 0.0 0.00 0.00 0.00 86 1018.9
20260508090052 49 0 0.0 0.9 0.00 0.00 0.00 86 1018.9
20260508084547 49 0 0.0 0.0 0.00 0.00 0.00 85 1018.8
20260508083050 49 0 0.0 0.0 0.00 0.00 0.00 85 1018.7
20260508081607 49 0 0.0 0.9 0.00 0.00 0.00 84 1018.5
20260508080048 49 0 0.0 0.0 0.00 0.00 0.00 82 1018.5